Showing default

UHETSAT, 58466

Orbit data source: Space-Track

UHETSAT, 58466 is a payload satellite owned by SITAEL SpA (IT) in SSO that was launched on Fri, 01 Dec 2023 UTC via an FALCON 9 launch vehicle from the Air Force Western Test Range (AFWTR). Payload-class satellites include a variety of spacecraft equipped with specific instruments for various scientific and technological missions. These include communications satellites like Starlink; space stations such as the ISS; scientific satellites like the Hubble; Earth observation satellites from companies like Planet Labs, Umbra, and HawkEye 360; GPS; miniature CubeSats for education and research; and military/defense satellites.

Loading next visibility...
Identifier
58466, 2023-185E
Orbit
SSO
Country
Flag of ITIT
Related business
Manufacturer
SITAEL SpA
Mission
Operational Commercial Technology
Bus & Motor
S-50, Unknown motor
Mass
70 kg wet, 70 kg dry
Launch date (UTC)
2023-12-01 (3 years ago)
Launch vehicle
FALCON 9
Launch site
Air Force Western Test Range (AFWTR)
Object type
Payload
Rocket body
Debris
Shape & HBR
Box, 0.4 m
Radar Cross Section
0.360 m², Medium (>0.1 m² and < 1m²)

Expand to show TLE details & history
Last TLE update: 2 hours ago

TLE from 2 hours ago
0 UHETSAT
1 58466U 23185E   26254.88070538  .00004979  00000-0  16236-3 0  9996
2 58466  97.3399 321.5849 0012621  10.1968 349.9527 15.32188588154569
Epoch: 2026-09-11T21:08Z
TLE epoch observation values (Epoch: 2026-09-11T21:08:12.944Z)
Latitude
-0.00009°
Longitude
13.63327°
Altitude
463.882 km
Speed
7.639 km/s
True Right ascension
21h 26m 20s
True Declination
0° 00' 00"
Sunlit
Object was in full shadow at epoch
Visualization orbit readout
Latitude
Unknown
Longitude
Unknown
Altitude
Unknown
Speed
Unknown
Apparent Right ascension
Unknown
Apparent Declination
Unknown
Sunlit
N/A
Visualization observer readout
Local Sidereal Time
15:24:24
Azimuth
Unknown
Elevation
Unknown
Doppler factor
Unknown
Orbital elements
Apogee altitude
474.869 km
Perigee altitude
457.592 km
Semi-major axis
6,844.368 km
Eccentricity
0.00126
Inclination
97.3399°
RAAN
321.5849°
Arg. of periapsis
10.1968°
True anomaly
349.92743°
Mean anomaly
349.9527°
Eccentric anomaly
349.94007°
Mean motion
3.83304 °/min
Orbital period
93.92 mins
BSTAR
0.00016236
Loading maneuver chart data...
Computing Atmospheric mass density...
Loading historical data...
Loading historical data...
Loading historical data...
Loading historical data...
Loading historical data...
Loading historical data...
Loading historical data...

Documentation

Showing up to 5 results
|